Location: Lafig�re
(44.4503°N, 4.0357°E)
Time: 04:38:25
(UTC+00:00)

Transit 2A Rocket - Pass Details

Date: 20 June 2021
Orbit: 590 x 913 km, 66.7° (Epoch: 26 July)

Event Time Altitude Azimuth Distance (km) Brightness Sun altitude
Exits shadow 23:16:09 29° 98° (E) 1,092 5.6 -21.8°
Drops below altitude 10° 23:19:27 10° 51° (NE) 1,966 7.5 -21.8°
Sets 23:21:57 0° 41° (NE) 2,909 8.6 -21.9°
